Weather History for Sydney Airport, New South Wales

Change the Weather History Date:

Monday, July 29, 2013

  Actual Average Record
Temperature  
Mean Temperature 62 °F -  
Max Temperature 73 °F 65 °F - ()
Min Temperature 50 °F 46 °F - ()
Degree Days  
Heating Degree Days 4    
Growing Degree Days 12 (Base 50)    
Moisture  
Dew Point 46 °F    
Average Humidity 55    
Maximum Humidity 82    
Minimum Humidity 22    
Precipitation  
Precipitation 0.00 in 0.12 in - ()
Sea Level Pressure  
Sea Level Pressure 30.19 in    
Wind  
Wind Speed 8 mph ()    
Max Wind Speed 14 mph    
Max Gust Speed -    
Visibility 15.9 miles    
Events      
T = Trace of Precipitation, MM = Missing Value Source: Averaged Metar Reports

Daily Weather History Graph

Daily Weather History Graph

Search for Another Location

Airport:

Trip Planner

Search our weather history database for the weather conditions in past years. The results will help you decide how hot, cold, wet, or windy it might be!

Date:

Astronomy

Jul. 29, 2013 Rise Set
Actual Time 6:50 AM EST 5:13 PM EST
Civil Twilight 6:23 AM EST 5:40 PM EST
Nautical Twilight 5:53 AM EST 6:10 PM EST
Astronomical Twilight 5:23 AM EST 6:39 PM EST
Moon No Moon Rise 10:35 AM EST
Length of Visible Light 11h 16m
Length of Day
10h 23m
Waning Gibbous, 57% of the Moon is Illuminated
Jul 29
Waning Gibbous
Jul 30
Last Quarter
Aug 7
New
Aug 14
First Quarter
Aug 21
Full

Hourly Weather History & Observations

Time (EST) Temp. Dew Point Humidity Pressure Visibility Wind Dir Wind Speed Gust Speed Precip Events Conditions
12:00 AM 56 °F 46 °F 61% 30.26 in - NW 4.6 mph - -  
12:00 AM 55.4 °F 46.4 °F 72% 30.24 in - NW 4.6 mph - N/A   Clear
12:30 AM 53.6 °F 46.4 °F 77% 30.24 in - NNW 4.6 mph - N/A   Unknown
1:00 AM 53 °F 46 °F 71% 30.26 in - NW 5.8 mph - -  
1:00 AM 53.6 °F 46.4 °F 77% 30.24 in - NW 5.8 mph - N/A   Unknown
1:30 AM 51.8 °F 46.4 °F 82% 30.24 in - NW 5.8 mph - N/A   Unknown
2:00 AM 51.8 °F 46.4 °F 82% 30.24 in - WNW 5.8 mph - N/A   Clear
2:30 AM 51.8 °F 44.6 °F 76% 30.24 in - NNW 5.8 mph - N/A   Clear
3:00 AM 51 °F 45 °F 74% 30.24 in 16 mi North 8.1 mph - -   Partly Cloudy
3:00 AM 50.0 °F 44.6 °F 82% 30.24 in - North 8.1 mph - N/A   Clear
3:30 AM 51.8 °F 44.6 °F 76% 30.21 in - North 5.8 mph - N/A   Clear
4:00 AM 53 °F 46 °F 68% 30.24 in - NNW 8.1 mph - -  
4:00 AM 53.6 °F 46.4 °F 77% 30.21 in - NNW 8.1 mph - N/A   Clear
4:30 AM 53.6 °F 46.4 °F 77% 30.21 in - NNW 6.9 mph - N/A   Clear
5:00 AM 51.8 °F 46.4 °F 82% 30.21 in - NNW 9.2 mph - N/A   Clear
5:30 AM 51.8 °F 46.4 °F 82% 30.21 in - North 12.7 mph - N/A   Clear
6:00 AM 56 °F 46 °F 60% 30.24 in 16 mi North 13.8 mph - -   Partly Cloudy
6:00 AM 55.4 °F 46.4 °F 72% 30.21 in - North 13.8 mph - N/A   Clear
6:30 AM 57.2 °F 46.4 °F 67% 30.24 in - North 9.2 mph - N/A   Clear
7:00 AM 59 °F 45 °F 50% 30.26 in - NNE 8.1 mph - -  
7:00 AM 59.0 °F 44.6 °F 59% 30.24 in - NNE 8.1 mph - N/A   Clear
7:30 AM 60.8 °F 44.6 °F 55% 30.24 in - North 6.9 mph - N/A   Clear
8:00 AM 60.8 °F 44.6 °F 55% 30.24 in - NNW 9.2 mph - N/A   Clear
8:30 AM 62.6 °F 44.6 °F 52% 30.27 in - NW 9.2 mph - N/A   Clear
9:00 AM 62 °F 46 °F 44% 30.27 in 12 mi WNW 8.1 mph - -   Haze
9:00 AM 62.6 °F 46.4 °F 55% 30.27 in - WNW 8.1 mph - N/A   Clear
9:30 AM 62.6 °F 44.6 °F 52% 30.27 in - WSW 6.9 mph - N/A   Clear
10:00 AM 65 °F 46 °F 40% 30.27 in - WNW 8.1 mph - -  
10:00 AM 64.4 °F 46.4 °F 52% 30.24 in - WNW 8.1 mph - N/A   Clear
10:30 AM 68.0 °F 44.6 °F 43% 30.24 in - WNW 8.1 mph - N/A   Clear
11:00 AM 71.6 °F 42.8 °F 35% 30.21 in - NNW 11.5 mph - N/A   Clear
11:30 AM 71.6 °F 41.0 °F 33% 30.21 in - North 12.7 mph - N/A   Clear
12:00 PM 71 °F 42 °F 24% 30.20 in 16 mi NNW 11.5 mph - -   Haze
12:00 PM 71.6 °F 42.8 °F 35% 30.18 in - NNW 11.5 mph - N/A   Clear
12:30 PM 71.6 °F 42.8 °F 35% 30.18 in - North 10.4 mph - N/A   Clear
1:00 PM 73 °F 42 °F 22% 30.17 in - North 10.4 mph - -  
1:00 PM 73.4 °F 42.8 °F 33% 30.15 in - North 10.4 mph - N/A   Clear
1:30 PM 73.4 °F 42.8 °F 33% 30.15 in - North 11.5 mph - N/A   Clear
2:00 PM 71.6 °F 42.8 °F 35% 30.12 in - North 8.1 mph - N/A   Clear
2:30 PM 73.4 °F 42.8 °F 33% 30.12 in - North 10.4 mph - N/A   Clear
3:00 PM 72 °F 43 °F 24% 30.14 in 16 mi North 9.2 mph - -   Partly Cloudy
3:00 PM 71.6 °F 42.8 °F 35% 30.12 in - North 9.2 mph - N/A   Clear
3:30 PM 71.6 °F 44.6 °F 38% 30.12 in - NE 10.4 mph - N/A   Clear
4:00 PM 72 °F 46 °F 28% 30.14 in - NE 11.5 mph - -  
4:00 PM 71.6 °F 46.4 °F 41% 30.12 in - NE 11.5 mph - N/A   Clear
4:30 PM 69.8 °F 48.2 °F 46% 30.12 in - NNE 11.5 mph - N/A   Clear
5:00 PM 68.0 °F 48.2 °F 49% 30.12 in - NNE 10.4 mph - N/A   Clear
5:30 PM 66.2 °F 50.0 °F 56% 30.12 in - NNE 10.4 mph - N/A   Clear
6:00 PM 65 °F 53 °F 56% 30.14 in 16 mi NE 9.2 mph - -   Partly Cloudy
6:00 PM 64.4 °F 53.6 °F 68% 30.12 in - NE 9.2 mph - N/A   Clear
6:30 PM 64.4 °F 51.8 °F 64% 30.12 in - NE 8.1 mph - N/A   Clear
7:00 PM 64 °F 52 °F 55% 30.15 in - NE 8.1 mph - -  
7:00 PM 64.4 °F 51.8 °F 64% 30.12 in - NE 8.1 mph - N/A   Clear
7:30 PM 62.6 °F 51.8 °F 68% 30.12 in - NE 9.2 mph - N/A   Clear
8:00 PM 64.4 °F 50.0 °F 59% 30.12 in - NNE 10.4 mph - N/A   Clear
8:30 PM 64.4 °F 48.2 °F 56% 30.12 in - North 11.5 mph - N/A   Clear
9:00 PM 64 °F 47 °F 44% 30.14 in 19 mi NNE 9.2 mph - -   Partly Cloudy
9:00 PM 64.4 °F 48.2 °F 56% 30.12 in - NNE 9.2 mph - N/A   Clear
9:30 PM 64.4 °F 46.4 °F 52% 30.12 in - NNE 9.2 mph - N/A   Clear
10:00 PM 63 °F 48 °F 48% 30.15 in - North 9.2 mph - -  
10:00 PM 62.6 °F 48.2 °F 59% 30.12 in - North 9.2 mph - N/A   Clear
10:30 PM 62.6 °F 46.4 °F 55% 30.12 in - North 10.4 mph - N/A   Clear
11:00 PM 60.8 °F 46.4 °F 59% 30.12 in - North 8.1 mph - N/A   Clear
11:30 PM 60.8 °F 44.6 °F 55% 30.12 in - North 9.2 mph - N/A   Clear